When you browse on this site, cookies collect data to enhance your experience and personalize the content and advertising you see.
Visit our Privacy Policy to learn more. By continuing to use the site, you agree to this use of cookies and data.
  • In Czech Republic
  • List of Countries
  • For 7 days
  • Water Temperature
  • Satellite Maps
  • Weather Map
  • Weather Widgets
  • user-avatar
    Login

    Hourly Weather Wareham Center

    Today, 22 April, Monday

    Time Temperature Precipitation Wind Pressure Humidity
    00:00 +11°C° 0 mm 1 mps 764 mmHg 91%
    01:00 +10°C° 0 mm 0 mps 764 mmHg 89%
    02:00 +11°C° 0 mm 1 mps 763 mmHg 89%
    03:00 +11°C° 0 mm 1 mps 763 mmHg 89%
    04:00 +10°C° 0 mm 1 mps 763 mmHg 89%
    05:00 +10°C° 0 mm 2 mps 763 mmHg 85%
    06:00 +11°C° 0 mm 3 mps 763 mmHg 81%
    07:00 +12°C° 0 mm 3 mps 762 mmHg 78%
    08:00 +12°C° 0 mm 4 mps 762 mmHg 78%
    09:00 +13°C° 0 mm 4 mps 762 mmHg 78%
    10:00 +13°C° 0 mm 5 mps 762 mmHg 78%
    11:00 +12°C° 0.5 mm 5 mps 761 mmHg 83%
    12:00 +12°C° 0.5 mm 5 mps 761 mmHg 88%
    13:00 +10°C° 0.5 mm 6 mps 761 mmHg 93%
    14:00 +10°C° 1 mm 5 mps 760 mmHg 94%
    15:00 +10°C° 1 mm 5 mps 760 mmHg 94%
    16:00 +10°C° 1 mm 5 mps 760 mmHg 95%
    17:00 +10°C° 0.8 mm 5 mps 760 mmHg 95%
    18:00 +10°C° 0.8 mm 5 mps 760 mmHg 96%
    19:00 +11°C° 0.8 mm 4 mps 760 mmHg 96%
    20:00 +10°C° 0.1 mm 4 mps 760 mmHg 96%
    21:00 +10°C° 0.1 mm 4 mps 760 mmHg 96%
    22:00 +10°C° 0.1 mm 4 mps 760 mmHg 96%
    23:00 +10°C° 0.1 mm 4 mps 760 mmHg 96%

    Tomorrow, 23 April, Tuesday

    Time Temperature Precipitation Wind Pressure Humidity
    00:00 +10°C° 0.1 mm 4 mps 760 mmHg 96%
    01:00 +10°C° 0.1 mm 3 mps 759 mmHg 96%
    02:00 +10°C° 0 mm 4 mps 760 mmHg 95%
    03:00 +10°C° 0 mm 4 mps 760 mmHg 94%
    04:00 +9°C° 0 mm 5 mps 760 mmHg 94%
    05:00 +9°C° 0 mm 5 mps 760 mmHg 93%
    06:00 +8°C° 0 mm 6 mps 760 mmHg 92%
    07:00 +8°C° 0 mm 6 mps 760 mmHg 91%
    08:00 +8°C° 0 mm 6 mps 761 mmHg 88%
    09:00 +9°C° 0 mm 6 mps 761 mmHg 86%
    10:00 +9°C° 0 mm 6 mps 761 mmHg 83%
    11:00 +9°C° 0 mm 5 mps 761 mmHg 80%
    12:00 +10°C° 0 mm 5 mps 761 mmHg 76%
    13:00 +10°C° 0 mm 5 mps 761 mmHg 73%
    14:00 +11°C° 0 mm 4 mps 761 mmHg 71%
    15:00 +12°C° 0 mm 4 mps 761 mmHg 70%
    16:00 +12°C° 0 mm 3 mps 760 mmHg 68%
    17:00 +11°C° 0 mm 3 mps 760 mmHg 73%
    18:00 +9°C° 0 mm 3 mps 760 mmHg 79%
    19:00 +7°C° 0 mm 2 mps 760 mmHg 84%
    20:00 +7°C° 0 mm 2 mps 760 mmHg 85%
    21:00 +8°C° 0 mm 1 mps 760 mmHg 87%
    22:00 +7°C° 0 mm 1 mps 760 mmHg 88%
    23:00 +7°C° 0 mm 2 mps 759 mmHg 88%

    Day after tomorrow, 24 April, Wednesday

    Time Temperature Precipitation Wind Pressure Humidity
    00:00 +7°C° 0 mm 2 mps 758 mmHg 88%
    01:00 +7°C° 0 mm 3 mps 758 mmHg 88%
    02:00 +7°C° 0.8 mm 4 mps 757 mmHg 90%
    03:00 +7°C° 0.8 mm 5 mps 756 mmHg 92%
    04:00 +8°C° 0.8 mm 5 mps 755 mmHg 94%
    05:00 +9°C° 0.3 mm 5 mps 755 mmHg 94%
    06:00 +10°C° 0.3 mm 5 mps 754 mmHg 94%
    07:00 +12°C° 0.3 mm 5 mps 754 mmHg 94%
    08:00 +13°C° 0 mm 5 mps 753 mmHg 91%
    09:00 +14°C° 0 mm 5 mps 753 mmHg 87%
    10:00 +15°C° 0 mm 4 mps 753 mmHg 83%
    11:00 +17°C° 0 mm 4 mps 753 mmHg 75%
    12:00 +17°C° 0 mm 4 mps 753 mmHg 67%
    13:00 +16°C° 0 mm 5 mps 752 mmHg 59%
    14:00 +16°C° 0 mm 5 mps 752 mmHg 54%
    15:00 +17°C° 0 mm 5 mps 752 mmHg 50%
    16:00 +17°C° 0 mm 6 mps 752 mmHg 46%
    17:00 +15°C° 0 mm 5 mps 753 mmHg 51%
    18:00 +14°C° 0 mm 5 mps 754 mmHg 56%
    19:00 +12°C° 0 mm 4 mps 754 mmHg 60%
    20:00 +11°C° 0 mm 4 mps 755 mmHg 63%
    21:00 +11°C° 0 mm 4 mps 755 mmHg 66%
    22:00 +10°C° 0 mm 4 mps 755 mmHg 69%
    23:00 +8°C° 0 mm 4 mps 755 mmHg 70%

    25 April, Thursday

    Time Temperature Precipitation Wind Pressure Humidity
    00:00 +8°C° 0 mm 4 mps 755 mmHg 72%
    01:00 +7°C° 0 mm 4 mps 756 mmHg 74%
    02:00 +7°C° 0 mm 4 mps 756 mmHg 75%
    03:00 +6°C° 0 mm 4 mps 756 mmHg 76%
    04:00 +7°C° 0 mm 3 mps 756 mmHg 78%
    05:00 +8°C° 0 mm 3 mps 757 mmHg 73%
    06:00 +9°C° 0 mm 3 mps 757 mmHg 69%
    07:00 +8°C° 0 mm 4 mps 758 mmHg 65%
    08:00 +11°C° 0 mm 3 mps 758 mmHg 59%
    09:00 +13°C° 0 mm 3 mps 758 mmHg 54%
    10:00 +15°C° 0 mm 2 mps 758 mmHg 48%
    11:00 +17°C° 0 mm 2 mps 758 mmHg 45%
    12:00 +18°C° 0 mm 2 mps 758 mmHg 42%
    13:00 +20°C° 0 mm 2 mps 758 mmHg 40%
    14:00 +19°C° 0 mm 2 mps 758 mmHg 42%
    15:00 +19°C° 0 mm 3 mps 757 mmHg 44%
    16:00 +18°C° 0 mm 3 mps 757 mmHg 46%
    17:00 +17°C° 0 mm 3 mps 757 mmHg 52%
    18:00 +14°C° 0 mm 3 mps 758 mmHg 58%
    19:00 +12°C° 0 mm 3 mps 758 mmHg 64%
    20:00 +12°C° 0 mm 3 mps 758 mmHg 65%
    21:00 +11°C° 0 mm 4 mps 758 mmHg 66%
    22:00 +11°C° 0 mm 4 mps 758 mmHg 67%
    23:00 +10°C° 0 mm 4 mps 758 mmHg 69%

    26 April, Friday

    Time Temperature Precipitation Wind Pressure Humidity
    00:00 +10°C° 0 mm 3 mps 758 mmHg 70%
    01:00 +10°C° 0 mm 3 mps 757 mmHg 71%
    02:00 +9°C° 0 mm 3 mps 757 mmHg 74%
    03:00 +9°C° 0 mm 3 mps 757 mmHg 77%
    04:00 +9°C° 0 mm 3 mps 757 mmHg 79%
    05:00 +10°C° 0 mm 4 mps 757 mmHg 77%
    06:00 +11°C° 0 mm 4 mps 757 mmHg 74%
    07:00 +12°C° 0 mm 5 mps 757 mmHg 72%
    08:00 +13°C° 0 mm 5 mps 756 mmHg 68%
    09:00 +15°C° 0 mm 5 mps 756 mmHg 63%
    10:00 +16°C° 0 mm 6 mps 755 mmHg 59%
    11:00 +16°C° 0 mm 6 mps 755 mmHg 57%
    12:00 +17°C° 0 mm 6 mps 754 mmHg 54%
    13:00 +17°C° 0 mm 6 mps 753 mmHg 52%
    14:00 +16°C° 0 mm 6 mps 753 mmHg 59%
    15:00 +15°C° 0 mm 5 mps 753 mmHg 67%
    16:00 +13°C° 0 mm 5 mps 753 mmHg 75%
    17:00 +13°C° 0 mm 4 mps 753 mmHg 79%
    18:00 +12°C° 0 mm 4 mps 754 mmHg 83%
    19:00 +12°C° 0 mm 3 mps 754 mmHg 87%
    20:00 +11°C° 0 mm 3 mps 754 mmHg 85%
    21:00 +11°C° 0 mm 3 mps 754 mmHg 83%
    22:00 +11°C° 0 mm 3 mps 754 mmHg 82%
    23:00 +10°C° 0 mm 3 mps 754 mmHg 79%

    27 April, Saturday

    Time Temperature Precipitation Wind Pressure Humidity
    00:00 +10°C° 0 mm 4 mps 754 mmHg 77%
    01:00 +10°C° 0 mm 4 mps 754 mmHg 75%
    02:00 +9°C° 0 mm 5 mps 754 mmHg 63%
    03:00 +8°C° 0 mm 5 mps 754 mmHg 52%
    04:00 +8°C° 0 mm 6 mps 754 mmHg 40%
    05:00 +8°C° 0 mm 6 mps 755 mmHg 43%
    06:00 +8°C° 0 mm 7 mps 755 mmHg 46%
    07:00 +9°C° 0 mm 7 mps 755 mmHg 48%
    08:00 +10°C° 0 mm 7 mps 756 mmHg 43%
    09:00 +11°C° 0 mm 8 mps 756 mmHg 38%
    10:00 +12°C° 0 mm 8 mps 756 mmHg 33%
    11:00 +12°C° 0 mm 8 mps 756 mmHg 31%
    12:00 +13°C° 0 mm 8 mps 756 mmHg 28%
    13:00 +13°C° 0 mm 8 mps 755 mmHg 26%
    14:00 +13°C° 0 mm 8 mps 756 mmHg 26%
    15:00 +13°C° 0 mm 8 mps 756 mmHg 25%
    16:00 +13°C° 0 mm 8 mps 757 mmHg 24%
    17:00 +13°C° 0 mm 6 mps 757 mmHg 29%
    18:00 +10°C° 0 mm 5 mps 758 mmHg 33%
    19:00 +10°C° 0 mm 4 mps 759 mmHg 37%
    20:00 +8°C° 0 mm 4 mps 760 mmHg 40%
    21:00 +8°C° 0 mm 3 mps 760 mmHg 43%
    22:00 +7°C° 0 mm 3 mps 761 mmHg 45%
    23:00 +7°C° 0 mm 3 mps 761 mmHg 47%
    Show more